DLH3KK EDDF-EDDN

Flight info

Callsign DLH3KK
Flight time 0h 33m
Altitude 21000
Route CINDY5F CINDY Z74 HAREM T104 ELMOX DCT LETKU LETKU1V
Aircraft A20N/M-SDE2E3FGHIJ1RWXY/LB1

Departure

Time 2026-05-06 20:46
Airport Frankfurt Main Airport (EDDF)

Arrival

Time 2026-05-06 21:20
Airport Nuremberg Airport (EDDN)
Time Latitude Longitude Altitude Speed Heading
2026-05-06 20:24 50.04654 8.55938 363 ft 0 kts 340°
2026-05-06 20:34 50.04646 8.55942 361 ft 2 kts 340°
2026-05-06 20:35 50.04634 8.55949 365 ft 2 kts 340°
2026-05-06 20:35 50.04620 8.55957 360 ft 2 kts 340°
2026-05-06 20:35 50.04606 8.55965 363 ft 2 kts 340°
2026-05-06 20:35 50.04592 8.55973 360 ft 2 kts 340°
2026-05-06 20:36 50.04578 8.55981 360 ft 2 kts 325°
2026-05-06 20:36 50.04568 8.55998 363 ft 2 kts 288°
2026-05-06 20:36 50.04566 8.56020 357 ft 0 kts 250°
2026-05-06 20:38 50.04562 8.56001 362 ft 5 kts 250°
2026-05-06 20:39 50.04513 8.55956 360 ft 9 kts 190°
2026-05-06 20:39 50.04441 8.55925 360 ft 13 kts 198°
2026-05-06 20:39 50.04345 8.55927 359 ft 16 kts 160°
2026-05-06 20:39 50.04314 8.55947 356 ft 4 kts 156°
2026-05-06 20:40 50.04272 8.56031 358 ft 12 kts 74°
2026-05-06 20:40 50.04289 8.56185 354 ft 15 kts 105°
2026-05-06 20:40 50.04198 8.56270 354 ft 17 kts 160°
2026-05-06 20:40 50.04151 8.56358 359 ft 10 kts 76°
2026-05-06 20:41 50.04184 8.56503 362 ft 19 kts 68°
2026-05-06 20:41 50.04234 8.56718 359 ft 23 kts 70°
2026-05-06 20:41 50.04290 8.56953 361 ft 23 kts 69°
2026-05-06 20:41 50.04349 8.57197 364 ft 24 kts 73°
2026-05-06 20:42 50.04383 8.57359 364 ft 9 kts 69°
2026-05-06 20:42 50.04413 8.57469 361 ft 13 kts 70°
2026-05-06 20:42 50.04431 8.57595 366 ft 5 kts 95°
2026-05-06 20:42 50.04457 8.57670 364 ft 15 kts 61°
2026-05-06 20:43 50.04504 8.57848 365 ft 20 kts 69°
2026-05-06 20:43 50.04557 8.58074 363 ft 24 kts 69°
2026-05-06 20:43 50.04612 8.58303 370 ft 22 kts 68°
2026-05-06 20:43 50.04658 8.58514 371 ft 17 kts 96°
2026-05-06 20:44 50.04607 8.58577 370 ft 0 kts 162°
2026-05-06 20:44 50.04544 8.58617 370 ft 15 kts 158°
2026-05-06 20:45 50.04476 8.58549 370 ft 6 kts 246°
2026-05-06 20:45 50.04476 8.58547 370 ft 0 kts 246°
2026-05-06 20:45 50.04475 8.58545 370 ft 2 kts 246°
2026-05-06 20:45 50.04410 8.58280 373 ft 62 kts 249°
2026-05-06 20:46 50.04184 8.57317 367 ft 123 kts 250°
2026-05-06 20:46 50.03835 8.55924 699 ft 134 kts 250°
2026-05-06 20:46 50.03463 8.54655 1409 ft 130 kts 245°
2026-05-06 20:46 50.03012 8.53471 2008 ft 130 kts 241°
2026-05-06 20:47 50.02516 8.52250 2486 ft 140 kts 240°
2026-05-06 20:47 50.01864 8.50964 2946 ft 160 kts 225°
2026-05-06 20:47 50.00911 8.49962 3636 ft 174 kts 211°
2026-05-06 20:47 49.99727 8.49243 4302 ft 194 kts 193°
2026-05-06 20:48 49.98322 8.49472 4965 ft 217 kts 160°
2026-05-06 20:48 49.97129 8.51015 5720 ft 232 kts 127°
2026-05-06 20:48 49.96303 8.53211 6582 ft 240 kts 121°
2026-05-06 20:48 49.95489 8.55614 7261 ft 262 kts 120°
2026-05-06 20:49 49.94632 8.58247 7895 ft 285 kts 114°
2026-05-06 20:49 49.94077 8.61254 8850 ft 294 kts 100°
2026-05-06 20:49 49.93921 8.64453 9920 ft 300 kts 94°
2026-05-06 20:49 49.93673 8.67727 10602 ft 316 kts 108°
2026-05-06 20:50 49.92645 8.70838 11063 ft 335 kts 130°
2026-05-06 20:50 49.90887 8.73286 11758 ft 343 kts 145°
2026-05-06 20:50 49.89035 8.75662 12734 ft 348 kts 137°
2026-05-06 20:50 49.87460 8.78538 13708 ft 353 kts 125°
2026-05-06 20:51 49.86185 8.81813 14557 ft 358 kts 121°
2026-05-06 20:51 49.84937 8.85189 15404 ft 362 kts 121°
2026-05-06 20:51 49.83695 8.88596 16254 ft 365 kts 120°
2026-05-06 20:51 49.82445 8.92042 17109 ft 369 kts 120°
2026-05-06 20:52 49.81180 8.95528 17934 ft 373 kts 120°
2026-05-06 20:52 49.79904 8.99039 18684 ft 376 kts 120°
2026-05-06 20:52 49.78615 9.02579 19420 ft 379 kts 120°
2026-05-06 20:52 49.77316 9.06159 20129 ft 383 kts 119°
2026-05-06 20:53 49.76211 9.09927 20858 ft 387 kts 111°
2026-05-06 20:53 49.75423 9.13940 21515 ft 393 kts 105°
2026-05-06 20:53 49.74540 9.17929 21787 ft 392 kts 118°
2026-05-06 20:53 49.73111 9.21500 21845 ft 391 kts 128°
2026-05-06 20:54 49.71416 9.24780 21847 ft 389 kts 131°
2026-05-06 20:54 49.69631 9.27922 21843 ft 389 kts 133°
2026-05-06 20:54 49.67849 9.30990 21840 ft 389 kts 133°
2026-05-06 20:54 49.66050 9.34100 21840 ft 388 kts 133°
2026-05-06 20:55 49.64258 9.37222 21838 ft 388 kts 133°
2026-05-06 20:55 49.62477 9.40345 21837 ft 388 kts 133°
2026-05-06 20:55 49.60697 9.43475 21837 ft 387 kts 133°
2026-05-06 20:55 49.58924 9.46591 21837 ft 387 kts 133°
2026-05-06 20:56 49.57150 9.49706 21834 ft 386 kts 133°
2026-05-06 20:56 49.55381 9.52810 21838 ft 386 kts 133°
2026-05-06 20:56 49.53610 9.55913 21840 ft 385 kts 133°
2026-05-06 20:56 49.51841 9.59009 21844 ft 385 kts 133°
2026-05-06 20:57 49.50076 9.62094 21845 ft 384 kts 133°
2026-05-06 20:57 49.48310 9.65176 21844 ft 383 kts 133°
2026-05-06 20:57 49.46548 9.68248 21850 ft 383 kts 133°
2026-05-06 20:57 49.44788 9.71313 21851 ft 382 kts 134°
2026-05-06 20:58 49.43028 9.74373 21855 ft 382 kts 134°
2026-05-06 20:58 49.41273 9.77423 21856 ft 381 kts 134°
2026-05-06 20:58 49.39671 9.80662 21856 ft 383 kts 123°
2026-05-06 20:58 49.38570 9.84408 21856 ft 389 kts 110°
2026-05-06 20:59 49.38160 9.87101 21857 ft 392 kts 102°
2026-05-06 20:59 49.37932 9.91293 21855 ft 395 kts 97°
2026-05-06 20:59 49.37746 9.95495 21854 ft 395 kts 98°
2026-05-06 20:59 49.37554 9.99693 21856 ft 394 kts 98°
2026-05-06 21:00 49.37356 10.03891 21855 ft 395 kts 98°
2026-05-06 21:00 49.37155 10.08091 21858 ft 395 kts 98°
2026-05-06 21:00 49.36952 10.12290 21854 ft 394 kts 98°
2026-05-06 21:00 49.36747 10.16481 21853 ft 394 kts 98°
2026-05-06 21:01 49.36539 10.20683 21856 ft 395 kts 98°
2026-05-06 21:01 49.36330 10.24876 21855 ft 395 kts 98°
2026-05-06 21:01 49.36119 10.29074 21856 ft 394 kts 98°
2026-05-06 21:01 49.35908 10.33268 21858 ft 395 kts 98°
2026-05-06 21:02 49.35694 10.37465 21861 ft 395 kts 98°
2026-05-06 21:02 49.35480 10.41657 21862 ft 395 kts 98°
2026-05-06 21:02 49.35265 10.45839 21711 ft 392 kts 98°
2026-05-06 21:02 49.35072 10.50003 21233 ft 393 kts 94°
2026-05-06 21:03 49.35420 10.54157 20607 ft 399 kts 77°
2026-05-06 21:03 49.36553 10.58065 19959 ft 403 kts 59°
2026-05-06 21:03 49.38341 10.61383 19331 ft 403 kts 47°
2026-05-06 21:03 49.40332 10.64399 18775 ft 401 kts 45°
2026-05-06 21:04 49.42071 10.67686 18199 ft 394 kts 62°
2026-05-06 21:04 49.43073 10.71539 17559 ft 386 kts 80°
2026-05-06 21:04 49.43245 10.75595 16939 ft 377 kts 97°
2026-05-06 21:04 49.42865 10.79547 16329 ft 373 kts 103°
2026-05-06 21:05 49.42357 10.83442 15720 ft 370 kts 104°
2026-05-06 21:05 49.41874 10.87259 15141 ft 368 kts 103°
2026-05-06 21:05 49.41431 10.91120 14572 ft 366 kts 102°
2026-05-06 21:05 49.41026 10.94963 13998 ft 364 kts 101°
2026-05-06 21:06 49.40644 10.98772 13444 ft 362 kts 101°
2026-05-06 21:06 49.40269 11.02598 12844 ft 359 kts 101°
2026-05-06 21:06 49.39899 11.06378 12286 ft 356 kts 101°
2026-05-06 21:06 49.39535 11.10090 11956 ft 351 kts 101°
2026-05-06 21:07 49.39175 11.13746 11847 ft 338 kts 101°
2026-05-06 21:07 49.38832 11.17234 11731 ft 324 kts 101°
2026-05-06 21:07 49.38500 11.20578 11603 ft 311 kts 101°
2026-05-06 21:07 49.38182 11.23773 11443 ft 293 kts 101°
2026-05-06 21:08 49.37883 11.26775 11277 ft 276 kts 101°
2026-05-06 21:08 49.37595 11.29643 10884 ft 270 kts 101°
2026-05-06 21:08 49.37307 11.32479 10379 ft 268 kts 101°
2026-05-06 21:08 49.37019 11.35300 9894 ft 267 kts 101°
2026-05-06 21:09 49.36734 11.38090 9318 ft 264 kts 101°
2026-05-06 21:09 49.36452 11.40868 8754 ft 261 kts 101°
2026-05-06 21:09 49.36174 11.43605 8181 ft 260 kts 101°
2026-05-06 21:09 49.35893 11.46354 7589 ft 260 kts 100°
2026-05-06 21:10 49.35614 11.49082 7080 ft 258 kts 100°
2026-05-06 21:10 49.35337 11.51786 6549 ft 257 kts 100°
2026-05-06 21:10 49.35059 11.54481 6044 ft 255 kts 99°
2026-05-06 21:10 49.34917 11.57165 5507 ft 253 kts 82°
2026-05-06 21:11 49.35548 11.59600 5114 ft 244 kts 48°
2026-05-06 21:11 49.36905 11.61169 5025 ft 245 kts 17°
2026-05-06 21:11 49.38530 11.61718 4999 ft 237 kts
2026-05-06 21:11 49.40176 11.62038 4995 ft 238 kts
2026-05-06 21:12 49.41825 11.62315 4997 ft 238 kts 358°
2026-05-06 21:12 49.43353 11.61737 4992 ft 227 kts 324°
2026-05-06 21:12 49.44388 11.59973 4997 ft 226 kts 296°
2026-05-06 21:12 49.44919 11.57696 4997 ft 226 kts 282°
2026-05-06 21:13 49.45197 11.55337 4981 ft 223 kts 277°
2026-05-06 21:13 49.45420 11.52976 4990 ft 224 kts 277°
2026-05-06 21:13 49.45647 11.50673 4995 ft 209 kts 278°
2026-05-06 21:13 49.45852 11.48592 4994 ft 191 kts 278°
2026-05-06 21:14 49.46059 11.46492 4988 ft 190 kts 277°
2026-05-06 21:14 49.46246 11.44599 4997 ft 179 kts 277°
2026-05-06 21:14 49.46436 11.42668 4990 ft 181 kts 278°
2026-05-06 21:14 49.46625 11.40751 4996 ft 182 kts 278°
2026-05-06 21:15 49.46798 11.38854 4893 ft 181 kts 275°
2026-05-06 21:15 49.46982 11.36944 4770 ft 180 kts 281°
2026-05-06 21:15 49.47300 11.35087 4592 ft 178 kts 285°
2026-05-06 21:15 49.47554 11.33340 4375 ft 158 kts 274°
2026-05-06 21:16 49.47580 11.31660 4216 ft 157 kts 269°
2026-05-06 21:16 49.47572 11.29998 4030 ft 156 kts 271°
2026-05-06 21:16 49.47697 11.28365 3812 ft 154 kts 279°
2026-05-06 21:16 49.47883 11.26797 3569 ft 140 kts 280°
2026-05-06 21:17 49.48060 11.25403 3319 ft 126 kts 280°
2026-05-06 21:17 49.48236 11.24089 3060 ft 124 kts 280°
2026-05-06 21:17 49.48371 11.22778 2866 ft 126 kts 277°
2026-05-06 21:17 49.48503 11.21443 2657 ft 126 kts 278°
2026-05-06 21:18 49.48634 11.20114 2495 ft 125 kts 275°
2026-05-06 21:18 49.48763 11.18789 2370 ft 126 kts 279°
2026-05-06 21:18 49.48936 11.17467 2222 ft 127 kts 276°
2026-05-06 21:18 49.49060 11.16117 2011 ft 130 kts 276°
2026-05-06 21:19 49.49210 11.14720 1771 ft 132 kts 276°
2026-05-06 21:19 49.49341 11.13326 1550 ft 131 kts 275°
2026-05-06 21:19 49.49474 11.11944 1464 ft 132 kts 276°
2026-05-06 21:19 49.49603 11.10578 1227 ft 126 kts 276°
2026-05-06 21:20 49.49721 11.09320 1065 ft 115 kts 277°
2026-05-06 21:20 49.49808 11.08414 1044 ft 43 kts 280°
2026-05-06 21:20 49.49831 11.08200 1043 ft 20 kts 278°
2026-05-06 21:20 49.49851 11.07964 1047 ft 23 kts 276°
2026-05-06 21:21 49.49876 11.07719 1046 ft 18 kts 278°
2026-05-06 21:21 49.49829 11.07653 1045 ft 9 kts 161°
2026-05-06 21:21 49.49744 11.07722 1045 ft 20 kts 150°
2026-05-06 21:21 49.49618 11.07767 1039 ft 18 kts 197°
2026-05-06 21:22 49.49576 11.07740 1036 ft 0 kts 201°
2026-05-06 21:22 49.49596 11.07752 1038 ft 5 kts 202°
2026-05-06 21:22 49.49609 11.07761 1039 ft 0 kts 202°
2026-05-06 21:22 49.49588 11.07699 1037 ft 12 kts 253°
2026-05-06 21:23 49.49533 11.07663 1032 ft 3 kts 187°
2026-05-06 21:23 49.49529 11.07662 1032 ft 0 kts 187°